Hourly Data Report for October 24, 2012

All times are specified in Local Standard Time (LST). Add 1 hour to adjust for Daylight Saving Time where and when it is observed.

ST LEONARD CS
NEW BRUNSWICK

47°09'28.050" N
67°49'55.014" W
245.00 m
810I001
71019
WIY

Download Data

Hourly Data (October 2012)
Hourly Data Report for October 24, 2012
Temp Definition
°C
Dew Point Temp Definition
°C
Rel Hum Definition
%
Wind Dir Definition
10's deg

Wind Spd Definition
km/h
Visibility Definition
km
Stn Press Definition
kPa
Hmdx Definition


Wind Chill Definition


Weather Definition


TIME
00:00 -0.5 -2.5 86 29 6   98.79   -3 LegendNANA
01:00 -1.0 -3.0 86 28 6   98.79   -3 LegendNANA
02:00 -0.7 -3.0 84 30 7   98.83   -3 LegendNANA
03:00 -1.4 -3.6 85 30 7   98.84   -4 LegendNANA
04:00 -1.6 -3.9 84 30 6   98.88   -4 LegendNANA
05:00 -1.9 -3.7 87 27 7   98.91   -5 LegendNANA
06:00 -1.8 -3.9 86 34 2   98.94   -3 LegendNANA
07:00 -2.1 -3.8 88 30 2   98.98   -3 LegendNANA
08:00 -1.1 -3.2 86 30 7   99.05   -4 LegendNANA
09:00 -0.2 -2.5 84 30 11   99.09   -4 LegendNANA
10:00 1.4 -3.4 70 31 19   99.13     LegendNANA
11:00 2.8 -4.1 60 32 19   99.10     LegendNANA
12:00 3.3 -4.7 56 29 13   99.03     LegendNANA
13:00 4.3 -4.3 54 29 15   99.04     LegendNANA
14:00 5.2 -3.7 53 30 13   99.00     LegendNANA
15:00 5.7 -5.2 45 30 13   99.00     LegendNANA
16:00 5.9 -5.2 45 31 11   99.01     LegendNANA
17:00 4.6 -5.9 46 33 7   99.07     LegendNANA
18:00 2.0 -5.5 58 31 6   99.16     LegendNANA
19:00 0.4 -5.9 63 34 6   99.21     LegendNANA
20:00 -0.2 -6.2 64 35 6   99.28   -2 LegendNANA
21:00 -0.9 -6.5 66   0   99.33     LegendNANA
22:00 -2.5 -6.4 75   0   99.36     LegendNANA
23:00 -3.5 -6.3 81   0   99.38     LegendNANA

Notes on Data Quality.

Legend

  • E = Estimated
  • M = Missing
  • NA = Not Available
  • ‡ = Partner data that is not subject to review by the National Climate Archives
Date modified: